Satellite-Ground Cal/Val Site Overpasses Predictions

Prediction of Satellite NPP Overpassing Cal/Val Site: Antarctic Dome C

Ground Cal/Val Site Location: Latitude: -75.10, Longitude: 123.35; Satellite-Ground Site NADIR distance within 100 km.

Table of predicted overpasses for the next 14.0 days since TLE Epoch: 4/3/2016
Interval Starting Time Ending Time Minimum Distance Time Minimum Distance (km)
1 04/03/2016 07:19:52 04/03/2016 07:20:12 04/03/2016 07:20:02 74.98
2 04/05/2016 15:02:08 04/05/2016 15:02:32 04/05/2016 15:02:20 54.97
3 04/06/2016 14:43:19 04/06/2016 14:43:43 04/06/2016 14:43:31 53.99
4 04/07/2016 07:44:59 04/07/2016 07:45:20 04/07/2016 07:45:09 70.78
5 04/08/2016 07:26:07 04/08/2016 07:26:35 04/08/2016 07:26:21 37.20
6 04/10/2016 15:08:34 04/10/2016 15:08:44 04/10/2016 15:08:39 93.05
7 04/11/2016 14:49:34 04/11/2016 14:50:03 04/11/2016 14:49:49 18.11
8 04/13/2016 07:32:24 04/13/2016 07:32:53 04/13/2016 07:32:39 2.04


NCC Satellite Cal/Val Overpasses Prediction Service
